Wind_Speed
8 11 12 13 11 9 9 7 7 8 7 7 12 11 10 11 13 10 8 11 9 9 10 13 17 16 14 14 13 10 8 10 12 10 11 13 12 9 8 13 11 10 13 13 16 18 20 21 19 18 17 15 15 14 12 11 10 10 9 9 8 7 8 9 10 11 12 15 15 16 16 14 12 11 12 12 11 11 11 13 14 15 15 16 16 16
9 13 15 13 10 10 9 8 10 12 10 9 12 11 7 9 12 8 8 10 8 7 9 11 14 14 16 17 15 13 9 9 12 12 11 12 14 12 12 16 13 10 11 13 15 16 19 22 22 22 20 18 18 15 14 14 13 12 11 9 8 8 8 9 10 11 12 15 16 18 19 18 13 11 11 9 9 9 9 10 11 12 14 14 15 15
11 14 14 12 12 12 11 12 14 15 15 12 11 10 10 11 10 7 9 6 5 4 7 9 12 15 16 16 13 14 14 12 13 14 14 14 15 13 12 16 17 13 11 12 15 16 18 23 25 24 21 20 20 17 16 16 15 13 12 10 9 8 8 9 9 10 12 13 15 17 20 20 15 11 10 8 8 9 8 9 9 10 11 11 11 12
13 12 11 12 15 14 11 12 12 12 13 12 11 12 13 12 11 8 7 6 5 3 7 10 13 15 13 13 14 15 17 16 14 14 16 15 15 14 12 16 18 15 12 12 14 15 17 22 25 24 21 22 22 19 20 19 16 15 13 11 9 8 8 9 9 9 11 12 14 16 18 19 15 11 10 9 9 8 7 7 6 7 7 7 7 7
15 11 9 12 14 12 9 9 9 10 11 12 13 15 16 13 12 9 4 5 6 8 11 13 16 16 12 11 14 15 15 16 14 13 14 15 15 14 13 14 17 17 15 14 14 14 17 21 23 24 23 22 22 21 23 21 18 16 14 12 10 9 9 9 9 9 10 11 12 14 16 17 14 10 9 8 7 6 5 4 4 4 4 4 4 4
15 10 7 8 10 9 7 9 9 10 11 13 14 15 17 16 13 10 4 2 5 9 12 12 12 13 13 14 17 18 17 16 14 13 13 13 13 13 13 13 13 14 13 10 10 12 15 18 19 22 23 23 23 23 25 22 19 18 16 14 12 10 9 9 9 9 10 11 12 13 15 15 12 9 7 6 5 5 4 4 4 4 4 4 4 3
13 8 6 6 8 8 9 12 11 11 13 13 11 11 13 15 14 12 10 8 9 9 8 10 9 9 11 15 15 16 17 16 15 14 13 13 13 12 13 14 13 13 14 13 13 13 15 16 18 22 24 24 25 25 26 24 21 19 18 16 14 12 10 10 9 9 11 11 12 13 13 13 10 8 8 6 6 6 6 6 6 6 6 6 5 5
13 10 8 7 8 9 12 14 12 12 14 12 10 10 11 13 14 14 14 13 14 13 9 10 12 12 13 14 11 10 13 14 15 14 13 13 13 13 12 13 14 16 18 19 18 17 18 18 17 21 26 27 27 27 28 27 24 21 20 18 17 15 12 11 9 9 11 11 12 12 12 12 10 8 8 8 7 7 8 8 9 9 8 8 7 7
10 11 9 9 11 12 13 13 13 14 15 12 9 9 11 12 13 13 14 15 14 14 14 13 13 12 12 13 11 10 12 13 14 15 14 12 11 12 12 10 11 13 12 11 11 13 18 19 17 19 23 26 31 35 34 28 25 23 22 20 19 18 14 13 11 10 11 11 12 12 11 11 9 8 9 8 8 8 8 8 8 9 8 8 7 7
9 11 9 9 12 13 13 12 11 13 14 12 10 9 11 13 14 13 12 14 13 11 13 14 12 10 8 11 13 13 15 14 13 13 13 12 9 9 11 12 12 11 9 8 9 11 15 19 19 19 21 23 29 36 38 31 26 25 24 23 22 20 17 15 14 12 12 11 11 11 11 11 9 8 8 9 9 7 6 6 6 6 6 5 5 4
11 10 10 11 12 12 13 11 8 10 11 10 11 11 12 14 15 13 11 13 11 9 12 16 16 13 9 10 11 10 14 13 11 13 12 11 10 8 11 13 10 8 8 7 7 9 12 16 19 20 22 21 22 27 30 28 27 27 26 25 24 23 19 18 16 15 13 12 12 12 11 10 9 8 7 8 7 6 5 4 4 4 4 3 2 2
12 11 12 12 13 12 14 13 9 9 12 10 10 11 12 12 11 10 11 12 9 7 11 14 15 15 11 8 5 2 10 10 8 12 14 11 10 10 9 9 8 9 9 6 5 10 13 15 17 18 20 20 21 23 21 19 22 27 29 28 26 25 23 20 19 18 15 13 12 13 11 10 9 7 6 7 5 4 4 3 3 2 3 2 1 2
14 14 12 10 10 10 11 12 11 11 13 12 12 12 11 8 6 6 8 8 7 8 10 9 9 10 11 11 7 3 8 10 8 10 13 12 10 10 8 7 9 9 7 7 11 15 15 14 15 16 17 19 20 22 21 20 21 25 29 30 29 28 25 23 22 21 17 14 13 13 11 10 9 6 5 5 4 3 3 2 2 2 2 1 2 3
11 13 13 11 11 10 8 11 12 10 10 11 11 12 10 6 4 5 5 6 7 9 10 8 5 6 8 7 7 6 9 12 11 9 11 14 15 14 8 4 7 10 10 12 15 16 16 14 14 15 16 17 17 18 20 23 24 23 25 28 31 31 28 26 25 24 20 16 15 14 12 11 9 7 5 4 4 3 2 1 1 2 2 3 3 4
10 10 11 12 11 9 8 11 12 9 8 11 11 10 10 9 7 6 5 5 5 6 7 6 3 4 4 2 6 9 9 10 10 10 12 14 16 15 9 8 9 14 15 14 14 14 14 14 14 15 15 16 17 18 21 23 25 25 22 24 29 32 31 29 28 26 22 17 16 16 14 12 10 8 7 5 4 4 3 2 1 1 3 4 4 5
10 10 9 12 8 5 6 8 9 10 10 8 8 9 11 11 10 9 8 9 9 7 6 7 7 4 2 2 5 9 8 8 9 10 11 11 10 10 11 13 14 15 14 12 12 12 12 13 14 14 15 17 19 20 22 24 26 25 22 20 24 29 31 32 30 27 23 19 18 18 16 13 12 11 9 7 6 6 6 4 2 1 1 2 3 4
9 9 5 9 9 8 9 8 6 7 8 6 5 8 9 9 11 11 9 10 10 7 6 8 10 9 6 5 7 9 8 10 11 10 10 11 11 11 12 15 15 13 11 9 8 8 10 12 13 13 13 15 17 18 20 23 24 24 22 20 22 25 29 32 31 28 25 22 20 19 18 15 14 13 12 11 10 9 9 8 6 5 3 2 1 1
7 9 5 7 10 11 10 9 9 9 9 9 8 6 5 7 11 12 8 5 6 6 6 8 11 12 9 6 10 12 11 12 12 10 11 12 10 11 12 15 14 12 10 8 6 5 6 7 7 8 8 8 10 12 13 15 18 20 20 19 20 23 27 31 32 30 27 24 22 21 19 17 15 15 14 15 14 13 12 12 10 9 8 6 5 3
6 10 10 10 12 11 9 9 11 12 12 13 12 9 7 6 7 8 7 5 5 5 5 8 11 12 10 7 11 14 14 14 13 12 12 11 10 12 14 14 12 13 12 9 6 5 5 5 5 6 8 7 6 6 7 9 11 13 15 18 20 21 26 29 31 31 28 25 23 22 20 18 16 16 16 17 18 17 16 15 14 13 12 11 9 7
7 9 9 10 13 11 9 9 9 10 11 13 13 11 10 9 8 9 8 6 6 5 5 7 9 6 2 3 8 12 13 14 13 13 12 10 12 14 15 13 13 14 13 10 8 6 6 5 5 7 8 8 7 6 6 6 8 10 12 15 18 21 26 28 29 30 29 26 26 25 22 19 17 17 18 19 20 21 20 18 18 17 16 15 13 11
8 8 9 10 11 11 10 10 8 9 9 9 11 11 11 11 11 11 11 11 10 7 4 5 6 2 5 4 4 7 9 12 13 13 12 13 16 15 13 12 12 13 12 11 9 7 7 5 5 7 7 8 7 6 6 5 5 7 9 11 15 21 26 27 27 26 26 27 28 27 24 22 20 20 21 22 23 23 23 22 21 21 20 18 17 15
8 8 10 12 12 13 13 11 10 10 9 8 9 10 10 8 8 7 8 11 11 8 7 7 6 0 4 4 3 2 5 9 11 12 12 17 20 17 14 12 12 12 12 12 11 10 9 8 7 7 6 7 7 7 7 6 6 5 5 7 13 20 24 26 26 25 25 28 30 30 28 25 24 24 24 24 25 25 24 23 23 23 23 22 20 19
9 9 11 13 13 14 15 15 14 12 11 12 12 13 13 12 11 9 8 10 11 11 11 11 7 1 3 3 3 3 5 7 11 12 13 18 21 18 15 14 13 14 13 13 13 12 12 11 10 9 8 8 8 8 9 8 7 8 9 9 10 15 19 22 23 24 25 28 30 31 30 27 27 27 26 27 28 27 26 25 25 25 24 24 23 22
11 10 12 14 15 16 16 18 19 15 13 14 13 13 15 15 16 15 14 13 14 14 12 11 7 1 3 3 4 2 2 5 10 12 14 18 20 17 17 16 15 14 15 14 14 14 14 14 13 12 11 10 10 9 9 9 9 10 13 14 15 16 19 22 23 23 25 27 29 29 27 26 27 28 28 30 30 30 30 30 28 26 26 27 26 25
8 6 10 12 12 13 12 12 14 13 13 12 10 9 11 13 14 17 17 13 13 13 11 10 8 3 1 3 3 4 5 6 9 10 14 18 20 20 21 20 16 15 16 15 15 15 15 16 15 14 13 12 11 11 10 9 10 11 13 16 19 21 23 25 27 28 30 32 32 30 28 28 30 27 26 28 30 32 34 34 30 28 27 27 27 27
6 4 8 9 7 7 7 6 5 6 7 8 9 10 10 11 13 14 14 12 11 12 11 12 11 5 3 5 3 4 6 7 9 11 13 15 16 19 21 20 18 17 17 17 17 16 16 16 16 15 14 13 12 12 12 11 10 11 12 14 17 20 22 24 26 28 31 32 32 31 31 33 36 34 31 31 32 33 33 33 31 29 30 30 29 28
10 9 11 12 13 13 14 14 13 13 13 13 13 14 14 14 14 14 12 12 11 12 13 14 12 9 5 4 3 3 6 7 8 10 12 12 12 14 17 19 17 17 18 19 18 17 17 17 16 15 14 13 13 13 12 12 11 11 12 13 14 16 19 22 24 26 28 29 29 28 29 31 36 39 38 37 37 34 29 26 26 26 29 31 28 26
12 12 14 14 18 20 20 21 20 19 19 19 17 18 18 16 17 16 15 15 14 14 15 14 12 13 13 10 7 6 5 7 9 11 12 11 10 11 13 16 16 16 19 20 21 21 20 20 18 17 16 14 14 15 14 13 12 12 13 12 12 13 14 16 18 19 21 22 22 21 22 26 30 32 30 29 31 30 26 23 23 23 25 28 26 27
11 13 14 15 18 20 20 21 20 19 20 20 20 22 21 19 20 20 20 20 19 19 20 19 17 19 21 18 15 13 10 10 11 12 14 13 12 12 13 13 13 15 17 19 21 24 25 25 22 19 19 18 17 17 17 16 15 15 15 14 14 14 14 13 14 15 15 15 14 15 17 19 22 23 22 23 25 28 28 29 29 29 31 32 30 29
10 11 11 13 17 19 19 19 18 19 20 21 23 24 21 20 21 23 23 24 24 25 27 26 25 25 25 22 19 18 17 15 14 15 16 15 13 13 15 15 13 12 12 13 14 15 19 24 26 23 20 20 20 20 19 19 19 19 19 18 18 18 18 18 17 16 16 16 16 16 16 17 17 17 18 20 21 24 26 29 30 30 30 30 28 27
13 10 8 10 14 16 17 17 17 18 19 22 24 23 22 22 23 24 25 24 23 25 25 25 26 27 24 21 19 18 17 17 17 18 18 18 17 16 17 18 17 15 14 14 14 12 11 16 24 28 25 21 21 22 22 21 22 24 23 21 22 22 21 21 20 18 18 19 19 19 19 20 19 18 18 19 20 21 23 25 26 27 27 26 25 26
13 11 8 10 14 15 15 14 16 18 20 24 25 23 23 24 23 23 25 24 23 23 23 24 26 26 21 19 19 17 15 15 15 17 19 20 20 21 21 21 22 21 20 19 19 18 15 12 14 22 26 21 19 22 22 20 23 27 25 22 22 23 22 22 21 21 20 20 20 20 20 21 21 21 22 23 24 24 24 25 26 27 28 28 27 27
10 11 12 12 15 17 14 14 16 17 17 19 19 19 19 19 19 20 21 21 20 20 21 22 22 21 18 16 14 13 15 16 13 14 18 20 19 21 24 23 22 23 23 22 20 20 20 16 12 16 21 18 18 22 22 20 23 27 25 22 23 24 23 22 22 22 22 21 21 21 20 20 21 22 23 24 25 26 26 26 27 28 28 29 29 29
10 12 14 14 16 17 15 15 16 14 12 13 13 13 14 14 16 18 17 15 14 14 16 17 17 16 16 15 11 12 17 18 14 12 14 16 15 16 18 19 19 21 23 23 21 20 23 23 20 18 18 16 18 21 20 20 24 26 24 24 24 24 23 23 23 23 22 21 21 21 21 21 21 22 22 23 24 24 25 26 27 28 28 29 29 29
13 14 14 15 17 18 17 15 12 10 11 12 12 13 14 14 15 16 16 15 14 14 15 15 14 13 12 11 11 12 15 15 14 12 9 10 12 14 15 16 18 19 20 22 21 20 23 27 26 22 20 20 20 20 19 23 26 26 26 27 26 25 23 23 23 23 23 21 20 21 21 22 22 22 22 22 22 23 24 25 26 26 27 27 27 27
18 17 15 15 16 17 16 14 12 11 13 14 14 14 14 12 11 11 12 12 11 12 14 15 15 13 11 10 11 12 13 13 13 10 7 10 15 19 21 23 23 21 21 21 21 23 25 28 28 25 25 25 22 19 21 25 28 27 27 28 27 26 25 24 24 23 23 22 21 21 22 24 24 23 23 23 23 23 24 25 25 26 26 27 27 27
21 18 16 16 16 15 16 17 17 18 18 16 14 13 12 10 7 8 10 10 9 12 14 13 12 11 10 9 10 11 12 12 10 8 8 13 16 19 23 27 26 26 24 20 19 23 28 29 27 24 22 21 19 20 23 27 29 29 28 28 28 28 27 26 25 24 24 23 22 22 24 25 25 25 25 24 24 24 24 25 25 25 26 26 27 28
20 19 17 18 16 16 17 16 14 14 11 8 8 9 10 11 10 10 13 12 9 11 13 12 10 8 9 10 12 10 8 9 10 10 10 12 11 11 14 18 20 21 22 22 21 20 20 20 20 17 15 16 18 20 23 26 29 30 30 29 29 29 28 27 26 26 26 25 24 25 25 26 27 27 26 25 25 24 24 24 24 24 24 24 25 26
15 16 16 18 18 18 17 15 12 11 7 4 4 5 8 11 9 6 10 10 7 7 9 10 10 11 11 11 12 10 7 7 10 11 9 10 13 11 8 7 8 10 14 17 19 17 14 14 17 17 17 19 21 21 22 26 29 31 31 31 31 31 31 30 29 29 28 26 26 26 27 28 29 29 29 28 27 26 25 24 24 24 24 24 25 25
12 14 16 19 20 19 18 17 16 13 9 8 6 3 6 10 8 4 5 7 5 2 3 6 8 8 9 10 10 10 10 9 12 14 12 11 14 15 11 10 9 11 12 14 15 15 14 16 18 18 17 18 20 19 20 24 28 31 32 32 33 33 33 32 31 31 30 29 29 28 29 31 31 32 32 32 30 30 29 29 28 28 28 28 28 28
10 13 14 17 19 19 18 18 17 13 10 10 9 6 8 11 10 7 7 7 8 7 5 6 8 9 10 11 10 10 12 12 13 14 14 12 13 14 15 15 14 12 13 14 16 18 19 20 19 18 16 16 17 18 20 23 27 32 34 34 35 35 35 35 34 34 34 33 32 31 32 33 33 33 34 34 33 33 33 33 33 33 33 32 31 31
8 9 11 14 16 16 16 18 18 14 10 10 10 8 7 7 7 7 8 7 9 11 11 10 10 11 12 13 13 14 16 16 16 17 18 18 18 18 19 18 16 14 14 16 18 20 21 23 22 20 18 17 19 20 21 22 26 30 33 35 36 36 37 37 37 37 36 36 35 36 36 36 36 35 35 36 35 35 35 36 36 36 36 36 34 35
7 7 9 12 13 14 15 15 14 10 7 7 9 7 5 5 7 9 10 10 11 13 14 14 14 15 16 16 16 17 18 19 20 23 24 23 23 23 23 21 18 17 18 18 18 18 19 20 22 22 21 20 21 22 21 22 25 28 32 35 37 37 38 38 38 38 37 37 38 39 39 38 38 36 35 35 35 35 36 37 37 37 37 37 37 39
7 8 10 10 8 8 11 11 9 8 8 9 10 9 9 10 11 12 13 14 16 18 18 18 17 17 18 18 18 18 19 20 21 22 23 25 25 25 26 26 22 20 19 20 20 20 21 22 22 23 24 24 24 24 23 24 25 27 31 34 36 37 39 39 38 38 38 38 38 38 38 37 36 36 36 35 35 36 37 38 39 39 39 39 40 42
7 8 8 9 7 7 10 12 12 13 13 12 12 13 12 12 13 14 16 18 20 20 20 19 19 19 19 19 19 20 21 22 22 22 23 25 25 25 27 29 28 25 24 24 24 24 25 25 25 25 26 25 25 26 25 25 26 27 27 28 30 33 35 37 38 38 37 38 38 37 37 37 37 37 38 38 38 38 39 41 43 42 41 40 40 41
8 8 7 8 9 10 13 13 12 13 13 13 14 14 14 14 16 16 18 20 20 20 20 19 18 19 19 20 22 24 24 24 24 24 24 25 27 27 26 26 28 28 27 26 26 27 27 29 28 27 27 26 27 29 29 27 27 28 27 27 29 30 33 36 38 38 38 39 38 38 38 39 39 39 40 41 40 39 40 42 43 40 38 37 36 35
10 13 11 9 10 12 14 13 12 14 15 16 17 16 15 16 17 17 19 22 22 22 23 21 18 20 22 22 23 26 27 25 24 25 24 25 27 29 28 26 26 27 27 26 27 28 28 29 30 29 29 29 29 29 30 30 29 29 28 28 28 29 32 35 36 37 38 38 38 38 39 39 38 39 39 39 37 36 38 39 37 35 33 32 31 31
11 13 12 9 10 13 14 14 14 16 16 15 14 14 14 17 20 21 22 25 26 26 27 27 26 28 28 26 26 28 29 29 29 30 30 30 30 30 31 30 29 29 28 27 27 29 30 31 31 30 31 32 31 30 31 32 33 34 33 31 29 28 30 32 33 34 36 37 36 36 35 34 34 35 34 32 32 34 35 34 32 30 29 28 28 29
11 12 11 10 11 12 12 13 14 16 14 12 11 13 16 21 24 24 24 26 28 27 28 29 30 30 30 29 30 31 32 32 32 32 33 35 35 35 35 35 34 34 33 32 32 32 33 35 36 36 36 36 35 34 33 34 35 36 35 34 33 31 31 33 33 33 33 34 33 32 30 30 30 29 29 30 30 31 31 30 29 29 29 28 28 29
10 10 9 9 10 11 12 13 16 18 18 17 18 20 21 23 24 25 25 25 26 27 28 29 30 31 31 32 32 33 33 33 33 33 35 36 36 37 37 36 35 34 34 35 35 36 37 38 38 38 38 37 36 35 34 35 35 36 36 36 35 34 34 35 35 33 33 33 32 30 30 29 28 27 29 29 28 27 26 27 27 28 29 28 28 28
9 8 9 10 12 14 16 17 18 20 21 22 24 24 25 25 26 27 28 28 28 29 30 31 32 32 33 33 34 35 36 36 35 35 36 36 35 35 35 34 33 33 33 33 34 36 37 38 37 35 36 36 37 37 37 36 36 37 37 36 35 35 35 36 36 35 34 33 32 31 30 29 27 28 29 28 25 25 26 26 25 25 25 25 25 24
Wind_Direction
227 237 243 236 236 241 235 236 260 295 318 314 301 280 245 233 232 224 180 174 194 214 219 223 230 230 225 222 214 226 236 217 226 230 224 226 232 250 230 221 241 230 229 243 232 230 234 226 220 221 221 221 226 228 231 235 241 248 256 267 279 296 317 329 333 340 344 343 347 352 353 346 324 303 291 286 281 273 266 260 256 257 258 260 263 263
233 247 247 238 247 254 244 249 261 271 283 294 299 295 265 242 239 219 165 163 182 212 238 241 244 239 225 225 230 239 236 215 229 240 237 230 226 236 238 238 240 222 230 245 239 238 233 226 225 228 228 225 227 227 229 231 235 244 252 262 276 291 311 323 329 336 341 341 345 349 352 351 339 312 302 300 291 283 276 268 261 261 263 264 264 263
241 244 249 241 248 256 254 259 260 263 274 283 286 281 276 273 251 185 140 151 167 189 244 240 246 252 236 231 238 238 238 240 239 239 244 242 232 233 238 241 238 231 242 246 246 246 233 225 226 230 228 222 223 222 221 226 231 241 248 255 270 286 303 316 324 333 338 339 343 348 350 351 343 321 311 309 298 292 284 275 269 267 269 268 266 263
242 244 251 234 237 253 265 271 271 271 273 272 269 263 264 265 254 223 173 202 239 236 247 251 267 278 263 244 243 241 240 239 237 238 244 241 235 234 229 235 242 244 247 250 257 254 235 228 227 228 225 221 224 218 212 220 232 240 247 252 263 277 292 309 319 327 333 334 338 343 346 347 341 321 313 313 306 301 292 285 279 275 274 274 271 266
252 255 252 230 235 254 269 273 269 264 263 257 252 253 257 258 261 263 204 190 249 256 250 259 273 274 260 238 237 242 235 228 234 242 241 234 233 233 221 232 252 257 257 258 264 258 239 236 236 230 226 226 230 219 208 218 235 242 247 250 253 266 282 298 310 319 325 326 330 335 339 343 339 322 313 313 311 306 297 292 284 277 271 269 271 264
252 252 232 235 252 257 259 261 251 246 256 257 248 246 256 264 273 279 265 211 255 258 245 241 256 257 244 239 238 236 228 222 231 234 232 231 229 226 217 222 244 254 256 253 255 254 242 244 248 235 227 229 232 219 208 218 235 242 249 252 249 257 271 284 297 308 313 316 322 327 332 338 336 324 316 312 315 318 313 309 299 293 284 278 281 273
249 259 232 249 263 254 254 256 249 241 249 259 254 246 252 261 269 270 264 258 252 259 245 217 236 261 251 254 250 234 224 220 224 226 228 230 223 222 221 215 223 241 250 251 252 248 240 247 254 243 233 233 233 220 212 222 234 240 248 252 251 252 258 270 281 296 304 308 313 316 324 332 331 322 319 314 317 321 316 310 304 297 291 287 288 286
243 247 235 252 256 255 257 252 246 237 240 254 263 259 257 255 258 257 254 254 254 267 265 220 237 263 259 262 261 234 223 214 214 220 224 227 223 220 221 220 228 241 251 259 264 257 248 249 251 246 238 236 237 224 215 224 234 239 247 250 253 252 252 260 268 285 294 299 305 307 314 325 327 321 319 318 316 317 313 309 304 299 295 292 288 285
234 234 244 259 252 253 255 249 245 236 232 247 269 269 261 257 257 256 252 252 254 266 265 242 241 253 255 259 251 225 219 217 217 219 216 216 218 216 215 218 217 214 219 238 261 263 254 250 252 252 245 243 243 228 216 224 235 240 246 248 251 252 249 251 257 272 285 292 297 297 307 320 325 323 321 320 320 319 314 310 310 309 304 299 295 288
241 241 251 258 249 247 247 242 243 240 238 248 263 272 270 262 258 257 258 259 259 260 261 257 251 252 257 258 248 221 208 217 221 210 202 203 202 199 204 209 210 204 201 217 244 260 257 254 260 262 257 257 252 231 215 220 235 241 245 247 250 251 249 249 253 263 273 282 288 288 298 311 317 322 320 320 323 327 329 329 332 331 327 319 310 299
245 239 239 251 249 243 247 249 242 237 244 252 255 266 269 257 251 252 257 263 264 254 253 255 250 250 260 259 258 226 195 206 217 197 188 196 196 200 213 216 219 225 228 232 241 243 240 247 259 266 266 270 270 246 221 216 231 239 243 246 248 249 248 247 252 257 264 272 277 278 288 300 308 318 318 320 328 344 1 9 8 354 346 340 334 337
246 235 229 249 251 244 255 264 261 243 244 252 254 264 270 256 248 253 250 249 256 253 254 262 256 246 245 248 266 170 168 184 198 187 183 185 187 195 209 210 213 225 229 225 219 228 233 247 262 271 270 268 271 264 244 231 234 235 238 243 245 246 247 246 250 255 259 263 265 267 274 285 296 307 317 321 326 352 20 30 27 0 347 359 55 84
254 249 238 245 240 237 252 255 255 245 237 245 249 251 262 261 248 257 251 239 248 257 256 274 278 248 238 242 239 191 175 179 170 172 180 181 184 193 197 207 225 227 221 220 232 245 256 266 273 275 274 269 263 258 252 252 250 237 233 236 239 242 244 244 247 251 254 255 255 256 260 269 279 287 306 314 307 326 3 17 41 30 2 34 87 92
253 255 250 241 223 220 240 245 244 237 223 232 242 241 245 252 246 251 254 242 246 261 261 262 283 263 249 246 219 189 174 174 171 166 173 184 202 215 210 204 229 224 220 237 251 261 269 272 275 278 277 272 260 249 247 253 257 248 234 229 232 235 237 240 244 247 249 247 245 245 246 253 260 266 281 294 291 296 316 344 35 63 53 65 77 79
248 253 240 226 211 201 225 246 255 266 249 235 240 243 238 238 248 254 262 267 268 289 284 254 243 260 240 166 156 161 156 166 178 184 192 202 215 220 199 179 215 234 240 252 257 257 262 266 271 275 274 266 253 245 246 250 252 251 239 225 227 230 230 233 238 242 243 239 239 239 238 241 246 253 260 261 271 278 272 276 325 60 71 76 80 82
250 264 237 215 206 194 229 253 264 278 275 250 238 242 238 235 248 259 268 283 293 305 288 245 233 246 233 166 175 173 173 181 180 185 199 203 198 194 194 206 229 245 247 249 249 248 257 264 268 272 271 267 257 246 243 243 243 245 239 224 225 229 227 227 232 237 237 234 235 235 233 233 237 245 250 249 254 262 265 269 275 298 57 92 88 88
252 270 233 204 219 234 249 261 253 254 272 282 257 250 252 247 250 259 267 274 275 274 266 249 244 244 247 245 213 196 199 191 180 180 180 175 174 181 208 233 246 249 239 236 247 257 264 268 271 276 278 275 268 255 245 240 238 241 239 227 222 226 226 224 226 231 232 230 231 231 229 230 235 241 245 249 251 253 261 268 266 270 271 237 179 120
257 271 251 214 238 242 237 252 259 256 264 269 262 260 262 251 252 260 269 268 258 257 259 255 253 248 248 239 207 202 205 192 186 187 174 172 187 204 227 244 249 244 232 231 251 269 286 293 290 293 299 294 280 269 259 250 245 244 240 229 219 221 225 221 220 223 225 225 227 227 227 229 234 239 243 250 252 250 255 263 263 262 262 255 242 229
258 270 265 247 256 253 225 235 260 262 255 252 259 278 282 269 264 257 255 262 263 266 265 259 262 260 258 239 201 198 204 200 199 200 190 183 193 217 236 242 245 243 230 229 251 272 300 321 325 326 328 320 304 292 285 279 272 263 251 236 221 218 224 220 215 217 218 219 223 224 226 229 233 237 242 249 252 252 254 258 262 263 261 260 254 241
267 271 270 256 265 266 234 229 259 270 258 243 245 261 268 266 264 256 253 262 265 272 277 271 272 270 261 219 199 197 205 210 206 200 198 188 187 213 236 237 242 242 228 229 250 272 289 304 319 329 334 332 323 312 307 305 299 294 279 253 224 213 222 221 210 209 212 216 220 221 222 224 229 235 242 246 250 252 254 256 259 265 266 265 264 258
267 265 268 266 271 270 246 237 260 282 284 260 244 248 255 254 256 261 262 261 262 271 279 277 281 322 73 99 182 199 212 217 210 203 199 190 192 215 237 235 238 239 230 237 250 263 277 284 296 307 321 331 329 315 307 303 299 303 298 269 232 214 220 222 213 207 208 212 217 220 222 223 226 232 238 243 247 249 252 254 257 261 265 266 268 268
256 253 264 267 265 263 255 249 258 271 280 283 275 269 272 275 270 268 267 266 273 287 295 292 288 244 111 147 179 236 239 211 201 202 200 197 206 227 247 240 236 238 238 247 253 258 264 263 272 285 292 303 309 308 301 289 282 278 274 266 240 221 220 223 223 217 211 213 217 219 222 223 225 230 234 238 244 248 250 252 255 259 263 266 266 268
253 247 262 266 262 264 264 262 266 270 266 270 276 274 278 287 280 269 272 281 289 296 296 295 297 86 134 194 211 294 276 203 195 203 202 208 220 239 253 245 236 239 244 251 257 262 264 260 260 264 265 271 278 286 289 282 272 259 252 259 254 238 233 233 234 229 221 220 220 221 224 226 226 229 234 238 242 248 250 249 250 254 258 261 262 265
263 252 259 267 271 276 273 265 264 264 255 258 268 270 273 278 275 270 275 284 287 286 286 288 287 179 148 193 199 251 269 186 193 200 200 213 227 245 260 256 246 247 252 256 259 263 265 264 260 256 254 255 258 265 274 275 267 259 257 255 252 250 249 249 250 246 239 234 229 226 227 234 237 235 238 244 247 251 254 250 246 246 250 253 256 258
263 250 252 263 273 277 271 258 254 255 252 252 265 278 281 283 280 272 271 277 281 277 276 279 279 268 272 287 260 232 227 211 211 209 209 220 232 247 260 259 254 258 260 260 261 262 265 267 264 259 254 251 251 253 257 264 266 265 262 255 250 249 248 251 255 255 254 252 248 243 239 246 256 257 253 254 256 258 260 257 251 247 246 248 250 254
252 250 255 263 272 272 268 269 286 311 302 281 279 282 283 292 298 290 277 270 271 277 277 273 276 287 295 296 286 230 225 228 223 214 213 222 233 247 256 257 258 262 264 264 262 259 258 261 260 260 258 254 253 253 252 256 259 260 259 256 255 254 253 254 255 255 256 258 261 261 256 255 258 260 262 262 260 262 265 264 260 255 252 253 251 251
244 252 258 261 265 268 275 286 302 316 307 289 282 279 275 278 288 295 286 269 271 288 285 274 283 304 298 283 297 270 240 233 225 216 214 218 224 236 250 259 262 262 262 263 262 259 257 255 253 252 255 256 257 256 256 259 262 262 260 258 257 256 257 258 259 260 262 263 266 268 265 260 255 256 261 260 254 257 268 274 272 268 267 269 267 264
247 252 254 257 262 266 273 280 287 292 289 283 281 281 279 277 278 281 278 270 273 281 277 274 291 306 302 302 318 319 282 245 231 220 220 227 228 224 237 255 263 263 264 264 263 261 258 255 252 249 249 252 256 258 259 261 265 266 264 263 264 262 262 262 263 265 265 266 266 264 261 259 256 257 264 261 254 258 267 271 273 274 278 284 287 285
245 252 256 259 263 266 270 275 278 279 278 277 277 277 277 276 275 273 271 271 271 271 272 278 286 289 290 293 295 297 292 274 254 236 228 233 239 234 232 240 250 256 262 266 266 265 262 258 255 252 252 254 257 260 263 265 267 269 268 267 268 269 270 270 269 269 268 266 264 260 257 258 258 260 264 264 264 267 267 266 268 271 276 280 283 284
241 255 261 265 270 272 271 273 277 278 278 279 278 277 277 274 272 272 271 271 270 270 273 277 279 278 279 284 286 284 281 275 267 258 247 239 237 238 239 238 236 238 246 254 257 260 262 259 256 255 258 262 265 267 269 271 272 271 271 271 271 271 273 274 274 273 272 270 267 265 265 266 267 268 267 268 268 267 266 266 267 269 272 274 273 273
245 255 268 278 280 279 276 276 277 278 279 279 278 280 280 277 275 275 275 273 272 273 274 276 279 280 280 283 284 282 280 275 266 261 258 252 246 241 241 241 239 234 236 244 244 240 248 258 258 257 257 262 271 273 273 276 276 274 274 276 276 276 275 276 275 273 271 269 267 266 266 267 269 270 271 271 271 268 267 266 266 268 269 269 268 268
249 256 273 286 282 279 281 282 281 281 281 277 276 278 278 278 279 275 271 270 271 274 276 275 279 283 284 283 280 277 276 273 268 264 259 256 256 251 248 252 253 244 237 241 246 246 247 251 252 252 252 258 271 274 273 274 275 276 278 279 278 277 276 276 275 274 273 271 270 268 267 267 269 269 269 268 267 266 266 266 265 265 265 265 267 269
254 258 267 276 280 280 283 286 287 290 286 277 275 275 272 273 281 278 272 270 270 275 279 277 277 278 277 276 278 279 272 263 264 274 265 254 249 246 245 252 256 248 238 236 241 246 247 245 243 244 246 253 266 272 275 276 273 276 280 278 274 274 275 275 274 274 274 274 274 274 272 271 269 268 267 267 266 264 263 263 263 262 263 264 265 268
257 262 266 270 274 279 284 290 292 284 271 269 276 278 271 270 276 275 272 275 280 289 290 281 278 283 284 284 286 286 280 269 261 273 276 264 253 246 245 248 250 249 245 239 238 241 240 237 237 242 244 248 260 270 279 279 273 273 275 273 270 270 271 273 274 275 275 275 276 276 275 274 273 271 270 269 268 266 264 263 263 263 265 266 266 267
254 261 267 267 267 273 281 285 281 266 260 272 283 282 276 273 268 262 266 278 288 298 295 280 279 293 300 301 293 283 286 284 268 262 278 284 269 260 254 246 240 242 243 238 232 232 237 237 237 242 251 254 257 264 270 269 268 269 269 268 268 268 268 270 272 273 274 273 274 276 276 275 274 272 271 270 268 267 266 264 265 265 267 268 269 269
254 258 261 261 262 270 274 267 260 266 276 281 283 277 269 264 260 257 263 270 271 277 282 279 285 298 305 303 297 285 281 285 282 276 277 268 254 246 244 239 233 232 234 237 236 229 231 236 237 245 258 262 257 251 252 258 264 268 268 267 267 267 266 266 267 268 269 271 274 278 279 277 276 274 272 269 267 266 265 264 264 265 267 269 270 271
252 252 251 254 255 258 263 263 264 273 279 276 273 270 257 244 236 238 247 257 264 271 276 277 282 296 301 289 281 279 274 274 287 293 269 257 253 251 250 247 244 244 240 239 244 240 237 238 241 247 259 264 256 244 244 252 260 265 266 265 265 265 266 267 266 265 268 272 278 282 282 281 278 275 272 270 268 266 265 265 265 265 267 269 270 272
242 241 242 247 249 250 258 266 269 272 276 267 261 266 260 250 243 246 259 271 278 268 261 258 253 254 264 257 250 261 278 283 288 284 260 252 257 263 264 256 251 251 242 225 219 230 240 244 245 245 245 251 257 253 247 248 255 259 261 261 261 262 263 265 266 267 270 276 282 286 286 284 280 276 273 269 267 266 265 264 264 265 267 269 273 275
233 237 243 247 250 250 253 258 261 262 266 256 253 277 279 270 264 272 278 273 262 258 265 269 261 256 264 265 258 269 295 299 288 281 258 238 234 233 249 266 242 233 242 235 223 226 244 259 261 257 250 254 265 265 254 250 253 257 259 260 260 260 261 263 264 266 269 274 279 283 286 286 283 278 274 270 267 265 264 264 266 268 271 274 278 281
235 241 246 249 250 251 251 257 262 261 255 252 253 264 279 281 284 288 277 257 237 251 327 315 295 285 283 280 276 288 303 298 288 283 268 250 248 247 256 278 257 219 223 241 239 235 245 258 263 267 268 269 272 270 261 257 259 260 261 261 261 261 261 262 264 266 267 270 275 280 284 285 282 279 276 274 271 268 267 267 270 272 275 278 281 285
235 243 246 246 248 249 248 252 258 257 248 251 260 268 277 288 289 270 261 269 271 274 289 297 299 299 292 285 283 288 286 276 274 281 276 266 267 267 265 271 269 248 236 242 242 239 241 244 249 260 269 272 272 271 268 268 266 265 264 263 263 263 263 264 265 265 266 268 272 278 282 283 280 278 277 276 275 274 273 272 272 274 276 277 280 285
241 247 246 242 245 252 252 252 256 260 260 268 283 294 289 289 288 266 255 269 286 289 290 292 297 300 298 295 291 287 281 270 259 261 263 258 255 255 254 255 258 258 255 252 249 247 246 244 246 257 270 275 276 277 278 278 275 270 268 267 267 267 267 267 267 267 268 271 274 278 280 280 278 277 275 275 275 275 275 275 275 275 275 275 279 283
259 260 259 252 251 257 257 254 254 259 276 309 325 332 318 290 292 288 274 269 279 287 289 293 299 301 298 296 290 286 286 282 272 265 262 261 259 258 257 260 264 264 261 257 256 261 263 260 258 265 271 270 267 266 267 270 272 273 273 273 273 273 272 271 271 271 272 275 277 278 278 279 279 278 276 275 275 275 274 275 275 275 274 274 277 279
270 265 269 271 270 266 260 256 264 280 307 336 331 314 304 298 297 299 295 289 290 291 293 298 300 296 293 292 288 285 285 286 285 283 278 273 272 272 270 268 267 267 266 264 263 265 267 267 267 269 270 267 265 266 267 269 273 276 277 276 274 272 272 272 272 274 275 275 276 277 278 278 279 278 278 278 278 278 278 277 276 275 274 275 277 277
266 258 266 277 282 282 275 277 293 302 309 319 308 293 298 305 305 307 306 301 297 296 295 295 290 285 286 289 287 285 284 283 283 285 285 283 281 280 280 277 274 270 266 263 263 264 264 263 262 263 266 267 266 266 263 261 262 265 269 271 270 269 269 270 271 273 275 275 275 277 278 278 278 279 279 279 279 280 281 279 278 277 277 277 278 279
253 254 265 281 284 286 284 285 297 301 299 302 300 297 302 307 306 305 297 286 280 278 277 279 281 282 285 289 287 282 280 282 282 281 282 283 277 271 272 277 280 278 274 270 269 270 270 267 263 261 264 266 264 260 256 252 253 256 259 264 266 267 268 270 271 271 272 273 275 275 276 277 278 277 277 277 278 278 278 278 279 280 280 279 277 276
269 267 267 280 288 288 288 293 302 303 298 299 300 301 304 299 288 280 275 272 270 269 268 270 279 285 286 288 287 283 280 282 283 281 280 281 277 270 268 270 271 273 275 275 274 273 273 272 270 266 265 264 263 261 256 251 250 252 255 259 262 265 267 269 269 270 272 274 275 276 277 278 276 274 273 273 274 273 272 274 277 279 278 275 272 271
295 294 289 290 285 281 286 296 301 299 296 298 300 299 295 286 273 267 268 270 272 273 271 270 275 283 286 287 287 286 286 286 285 283 284 285 285 281 278 274 268 265 265 266 267 267 266 265 263 260 258 256 256 256 256 255 254 256 260 261 263 266 268 268 269 271 275 276 276 276 277 274 271 272 272 271 269 268 269 272 273 273 271 270 269 269
297 301 297 291 284 284 294 304 302 295 291 291 285 275 272 274 274 273 273 273 274 278 278 276 277 282 286 288 288 289 289 289 287 286 286 286 286 284 282 279 276 271 268 265 262 260 259 258 258 258 258 259 260 261 263 265 265 266 268 268 266 266 267 269 271 274 275 275 275 273 270 267 267 271 272 269 267 268 270 270 269 269 269 269 269 270
287 294 295 299 298 294 291 290 289 290 289 287 280 274 275 280 283 284 285 285 286 287 285 284 284 284 285 286 287 287 287 287 287 286 285 284 284 284 283 282 281 278 274 269 263 259 259 261 262 263 263 265 268 269 269 270 271 270 271 271 270 267 266 268 272 273 273 273 273 271 268 269 272 272 268 266 266 268 269 270 270 270 268 267 269 272
264 268 274 284 287 284 283 285 286 288 289 288 286 286 289 292 291 290 293 294 292 290 289 289 289 288 286 286 286 286 286 285 284 283 282 281 281 280 280 280 278 277 274 271 266 262 261 263 265 267 268 270 273 273 272 271 271 271 270 270 269 268 266 266 268 268 268 268 268 267 267 268 268 265 263 263 265 267 268 269 270 270 268 269 270 269
Height
3092 3092 3090 3090 3090 3089 3088 3088 3087 3087 3087 3087 3087 3085 3084 3085 3084 3084 3085 3087 3090 3090 3090 3091 3091 3091 3092 3093 3094 3094 3094 3096 3098 3099 3101 3101 3099 3098 3098 3099 3102 3105 3106 3106 3107 3109 3110 3111 3112 3112 3113 3114 3115 3117 3118 3119 3120 3121 3121 3120 3120 3120 3120 3120 3120 3120 3120 3119 3119 3119 3119 3118 3117 3116 3116 3116 3116 3116 3116 3117 3117 3118 3118 3119 3119 3119
3091 3091 3089 3088 3088 3087 3087 3086 3086 3087 3088 3089 3088 3086 3084 3084 3084 3084 3085 3087 3090 3090 3090 3091 3090 3090 3091 3092 3093 3094 3094 3095 3097 3098 3099 3102 3102 3102 3101 3099 3100 3102 3104 3105 3105 3107 3109 3109 3109 3110 3112 3113 3114 3116 3117 3118 3119 3120 3120 3120 3119 3119 3119 3119 3119 3119 3119 3118 3118 3118 3117 3117 3116 3115 3115 3115 3115 3115 3116 3116 3116 3117 3117 3118 3118 3118
3090 3089 3087 3087 3087 3087 3087 3087 3087 3088 3088 3089 3089 3088 3086 3085 3085 3085 3085 3088 3089 3090 3091 3091 3091 3090 3090 3091 3091 3093 3095 3095 3096 3098 3098 3100 3101 3103 3104 3099 3098 3100 3102 3103 3104 3105 3107 3107 3107 3109 3112 3113 3114 3115 3116 3117 3118 3118 3119 3119 3119 3119 3119 3119 3118 3118 3118 3118 3117 3117 3117 3116 3116 3115 3115 3115 3115 3115 3115 3116 3116 3116 3117 3117 3117 3117
3088 3087 3086 3086 3085 3086 3087 3087 3087 3088 3088 3089 3089 3089 3088 3086 3085 3084 3085 3088 3089 3089 3091 3091 3091 3090 3089 3089 3091 3093 3094 3094 3095 3097 3098 3099 3099 3101 3103 3099 3096 3099 3101 3102 3103 3103 3105 3106 3106 3108 3111 3112 3113 3113 3114 3116 3117 3117 3118 3118 3118 3118 3118 3118 3118 3118 3118 3118 3117 3117 3117 3117 3116 3115 3115 3115 3115 3115 3115 3116 3116 3116 3116 3116 3116 3117
3086 3085 3085 3084 3084 3085 3087 3087 3088 3089 3088 3089 3089 3089 3087 3086 3085 3085 3085 3086 3088 3089 3090 3091 3090 3089 3089 3090 3091 3092 3093 3093 3095 3096 3096 3097 3098 3100 3102 3100 3096 3097 3100 3101 3101 3101 3103 3104 3106 3108 3109 3110 3111 3111 3112 3113 3115 3115 3116 3117 3117 3117 3117 3117 3118 3118 3118 3118 3117 3117 3117 3117 3116 3116 3115 3115 3115 3115 3115 3116 3116 3116 3116 3116 3116 3116
3084 3084 3084 3084 3084 3086 3087 3087 3088 3088 3088 3088 3087 3088 3087 3086 3085 3086 3086 3086 3088 3088 3089 3091 3090 3088 3088 3089 3089 3090 3091 3092 3093 3095 3096 3097 3098 3099 3101 3101 3098 3096 3098 3100 3100 3101 3101 3102 3104 3106 3107 3108 3108 3108 3109 3111 3113 3114 3114 3115 3116 3116 3117 3117 3117 3117 3117 3117 3117 3117 3117 3117 3117 3116 3115 3115 3115 3115 3115 3115 3116 3116 3115 3115 3115 3115
3083 3083 3083 3084 3084 3086 3086 3087 3087 3087 3088 3087 3085 3086 3086 3086 3086 3086 3087 3087 3087 3087 3087 3089 3089 3087 3087 3087 3087 3087 3088 3090 3092 3094 3095 3096 3097 3098 3099 3101 3100 3098 3097 3098 3100 3101 3101 3100 3102 3103 3105 3106 3106 3107 3107 3109 3111 3112 3112 3113 3114 3115 3116 3116 3116 3117 3117 3117 3117 3117 3116 3117 3117 3116 3116 3115 3115 3115 3115 3115 3115 3115 3115 3115 3114 3114
3082 3082 3082 3084 3084 3085 3085 3085 3086 3086 3086 3085 3084 3085 3086 3086 3086 3086 3087 3086 3086 3086 3086 3088 3089 3087 3086 3085 3085 3086 3087 3089 3091 3092 3094 3095 3096 3097 3098 3100 3101 3100 3097 3096 3097 3099 3100 3100 3101 3102 3103 3103 3105 3105 3105 3107 3110 3110 3111 3112 3112 3114 3115 3115 3116 3116 3117 3117 3117 3116 3116 3116 3116 3116 3116 3115 3115 3115 3114 3114 3114 3114 3114 3114 3114 3114
3081 3081 3082 3083 3084 3084 3084 3084 3084 3084 3084 3084 3084 3085 3085 3085 3085 3085 3085 3085 3086 3086 3085 3085 3087 3085 3084 3084 3085 3085 3087 3088 3090 3091 3093 3094 3095 3096 3098 3099 3099 3099 3098 3096 3096 3096 3096 3099 3100 3101 3102 3102 3104 3103 3101 3105 3108 3108 3109 3110 3111 3112 3114 3114 3115 3115 3116 3116 3116 3116 3116 3116 3116 3116 3116 3115 3115 3114 3114 3114 3114 3113 3113 3113 3113 3113
3080 3081 3082 3083 3083 3083 3082 3082 3082 3082 3082 3083 3084 3085 3085 3084 3084 3084 3084 3084 3085 3085 3084 3084 3085 3084 3082 3083 3084 3084 3085 3087 3088 3090 3091 3093 3094 3095 3096 3096 3095 3097 3098 3098 3097 3096 3095 3096 3097 3099 3100 3101 3102 3102 3098 3100 3105 3106 3107 3108 3109 3111 3112 3113 3114 3115 3115 3115 3115 3115 3115 3115 3115 3116 3116 3115 3115 3114 3114 3114 3114 3113 3113 3113 3113 3113
3079 3080 3081 3081 3081 3081 3081 3081 3081 3082 3082 3083 3084 3084 3084 3083 3083 3083 3084 3084 3084 3083 3083 3083 3084 3083 3082 3082 3082 3082 3082 3085 3087 3089 3090 3092 3093 3094 3093 3094 3096 3098 3098 3098 3099 3098 3096 3096 3096 3096 3097 3097 3098 3099 3095 3097 3102 3104 3105 3107 3108 3109 3111 3112 3113 3114 3115 3115 3115 3115 3115 3115 3115 3116 3116 3116 3115 3115 3114 3114 3114 3114 3113 3113 3113 3113
3078 3079 3079 3080 3080 3080 3080 3079 3080 3081 3082 3082 3083 3083 3082 3081 3082 3083 3083 3084 3083 3081 3081 3081 3081 3082 3081 3081 3082 3081 3082 3085 3087 3087 3089 3091 3092 3092 3092 3094 3096 3096 3096 3097 3096 3095 3095 3096 3096 3096 3096 3095 3096 3096 3094 3095 3100 3102 3103 3105 3106 3107 3110 3111 3112 3113 3114 3114 3114 3115 3115 3115 3115 3116 3116 3116 3116 3115 3115 3115 3115 3115 3114 3114 3113 3113
3077 3077 3077 3078 3078 3079 3079 3079 3079 3080 3081 3081 3082 3082 3082 3080 3082 3084 3082 3082 3082 3080 3080 3080 3080 3079 3080 3080 3081 3081 3083 3085 3086 3087 3089 3090 3090 3090 3091 3093 3093 3094 3095 3095 3093 3092 3094 3094 3094 3095 3095 3095 3096 3095 3094 3095 3098 3100 3101 3103 3104 3106 3108 3110 3111 3112 3113 3113 3114 3114 3115 3115 3115 3116 3116 3116 3116 3116 3116 3115 3115 3115 3115 3115 3114 3114
3077 3076 3076 3077 3076 3077 3078 3078 3077 3077 3079 3080 3080 3081 3081 3081 3084 3085 3082 3081 3081 3080 3079 3080 3080 3079 3079 3079 3080 3081 3083 3084 3086 3087 3088 3088 3088 3089 3091 3092 3092 3092 3092 3091 3091 3092 3093 3093 3092 3093 3093 3093 3093 3094 3094 3094 3096 3098 3099 3101 3102 3104 3106 3108 3109 3110 3112 3112 3113 3113 3114 3114 3115 3115 3116 3116 3116 3116 3116 3116 3116 3116 3116 3116 3116 3115
3076 3075 3074 3075 3075 3075 3077 3077 3076 3076 3076 3077 3078 3079 3080 3081 3083 3084 3082 3080 3080 3079 3079 3080 3080 3079 3078 3080 3081 3081 3083 3083 3085 3086 3086 3086 3087 3088 3090 3091 3089 3089 3090 3091 3091 3091 3091 3091 3091 3091 3092 3091 3091 3092 3093 3094 3094 3095 3096 3098 3099 3101 3104 3106 3107 3109 3110 3111 3112 3112 3113 3114 3114 3115 3116 3116 3116 3116 3116 3117 3117 3117 3117 3117 3117 3116
3075 3073 3072 3074 3074 3074 3076 3077 3076 3076 3075 3075 3076 3078 3079 3080 3081 3081 3080 3080 3079 3080 3080 3079 3079 3078 3078 3080 3081 3081 3082 3083 3085 3085 3085 3086 3087 3087 3088 3088 3088 3088 3089 3090 3090 3090 3090 3090 3090 3090 3090 3090 3089 3090 3091 3091 3092 3093 3094 3095 3097 3098 3101 3103 3105 3107 3109 3110 3111 3111 3112 3113 3114 3114 3115 3116 3116 3116 3116 3116 3117 3117 3117 3118 3118 3118
3074 3072 3071 3073 3074 3075 3076 3076 3076 3076 3076 3075 3076 3076 3077 3078 3079 3079 3078 3079 3079 3080 3079 3077 3077 3077 3078 3079 3080 3081 3082 3083 3083 3084 3084 3085 3086 3086 3086 3086 3087 3088 3088 3088 3088 3089 3088 3088 3089 3089 3088 3087 3087 3088 3088 3089 3090 3091 3092 3094 3095 3096 3098 3100 3103 3104 3106 3108 3109 3110 3111 3112 3112 3113 3114 3115 3115 3115 3115 3115 3116 3116 3117 3117 3118 3118
3074 3073 3072 3073 3074 3074 3075 3075 3075 3076 3076 3076 3075 3075 3076 3077 3078 3077 3078 3078 3079 3079 3077 3075 3075 3075 3076 3077 3078 3080 3082 3082 3083 3084 3084 3084 3085 3085 3085 3085 3086 3087 3087 3087 3087 3087 3087 3087 3087 3087 3087 3086 3086 3086 3087 3088 3089 3090 3090 3091 3093 3094 3095 3096 3099 3101 3103 3105 3107 3108 3109 3110 3111 3112 3113 3114 3114 3114 3115 3115 3115 3116 3116 3116 3117 3117
3074 3073 3072 3073 3073 3072 3073 3074 3074 3074 3075 3075 3075 3075 3075 3075 3076 3077 3077 3078 3078 3078 3075 3074 3073 3073 3074 3075 3076 3078 3080 3081 3082 3083 3083 3083 3084 3083 3083 3084 3085 3085 3086 3086 3086 3086 3086 3086 3086 3086 3085 3085 3085 3085 3086 3086 3087 3088 3089 3090 3091 3092 3092 3092 3094 3097 3100 3102 3104 3106 3108 3109 3110 3111 3112 3112 3113 3113 3114 3114 3114 3115 3115 3115 3116 3116
3074 3073 3072 3072 3072 3071 3071 3072 3073 3073 3073 3073 3074 3074 3075 3075 3075 3075 3075 3076 3077 3076 3075 3074 3072 3072 3073 3074 3075 3077 3079 3080 3081 3082 3082 3083 3082 3081 3082 3083 3083 3084 3084 3085 3085 3085 3085 3085 3085 3085 3085 3084 3084 3084 3084 3085 3086 3087 3088 3089 3090 3090 3090 3088 3089 3092 3096 3099 3102 3104 3106 3107 3108 3109 3110 3110 3111 3111 3112 3113 3114 3113 3114 3114 3115 3115
3073 3073 3072 3072 3072 3071 3070 3071 3072 3072 3072 3072 3072 3073 3074 3073 3074 3074 3074 3074 3074 3073 3073 3074 3072 3072 3073 3074 3076 3077 3078 3079 3080 3081 3082 3082 3080 3080 3081 3082 3082 3082 3083 3083 3084 3084 3085 3085 3084 3084 3084 3084 3084 3084 3083 3084 3084 3085 3087 3088 3089 3089 3089 3087 3087 3088 3092 3096 3099 3101 3103 3105 3106 3107 3108 3108 3109 3109 3111 3112 3112 3112 3113 3113 3114 3114
3072 3072 3072 3072 3072 3070 3070 3070 3072 3072 3072 3073 3072 3072 3073 3072 3073 3074 3074 3073 3073 3073 3073 3073 3072 3072 3073 3074 3076 3077 3077 3077 3079 3082 3081 3079 3078 3079 3080 3081 3081 3081 3082 3082 3083 3083 3084 3084 3084 3084 3084 3084 3083 3084 3083 3083 3084 3085 3086 3087 3089 3089 3089 3088 3088 3089 3091 3093 3096 3099 3101 3102 3103 3104 3104 3105 3106 3107 3108 3110 3111 3111 3112 3112 3113 3113
3070 3071 3071 3071 3070 3070 3069 3069 3069 3071 3072 3072 3072 3072 3073 3072 3072 3073 3073 3072 3072 3073 3073 3073 3072 3072 3072 3074 3076 3077 3077 3077 3079 3081 3080 3076 3077 3079 3079 3080 3080 3080 3081 3081 3081 3082 3082 3083 3083 3083 3083 3083 3083 3083 3083 3083 3084 3084 3085 3086 3088 3089 3090 3089 3089 3090 3092 3094 3095 3096 3098 3099 3100 3100 3101 3102 3103 3104 3106 3107 3108 3109 3110 3110 3111 3111
3069 3071 3071 3070 3069 3068 3068 3067 3067 3069 3070 3071 3071 3072 3072 3072 3072 3072 3072 3072 3072 3071 3073 3072 3071 3071 3072 3074 3075 3076 3077 3077 3078 3080 3078 3074 3076 3078 3078 3078 3079 3079 3080 3080 3080 3080 3081 3081 3082 3082 3082 3083 3083 3083 3083 3083 3083 3084 3084 3085 3087 3088 3089 3090 3090 3090 3092 3093 3094 3095 3096 3097 3097 3098 3099 3099 3100 3102 3103 3104 3104 3105 3106 3107 3108 3108
3069 3071 3070 3069 3068 3067 3066 3065 3065 3067 3068 3068 3070 3071 3071 3071 3072 3071 3071 3072 3071 3071 3072 3072 3070 3070 3071 3073 3074 3075 3076 3077 3078 3079 3076 3074 3075 3077 3076 3077 3077 3078 3078 3078 3079 3079 3079 3080 3080 3080 3081 3081 3082 3082 3082 3083 3083 3083 3084 3084 3085 3086 3087 3088 3089 3089 3091 3092 3093 3094 3095 3096 3096 3096 3098 3098 3098 3099 3100 3102 3102 3101 3101 3102 3104 3105
3069 3070 3069 3068 3068 3066 3064 3064 3065 3066 3067 3068 3069 3070 3070 3070 3071 3070 3070 3070 3070 3070 3072 3071 3070 3070 3071 3072 3073 3074 3075 3076 3077 3078 3076 3073 3075 3075 3074 3075 3076 3076 3076 3077 3077 3078 3078 3078 3079 3079 3079 3079 3080 3080 3081 3082 3082 3083 3083 3083 3084 3084 3084 3085 3086 3087 3088 3089 3090 3092 3093 3094 3094 3095 3096 3096 3096 3096 3098 3099 3100 3099 3098 3099 3100 3102
3067 3068 3068 3068 3067 3066 3065 3064 3065 3067 3068 3068 3068 3069 3069 3070 3070 3070 3070 3069 3070 3070 3070 3070 3070 3071 3072 3072 3073 3074 3075 3075 3076 3077 3076 3074 3074 3074 3073 3074 3074 3075 3075 3075 3076 3076 3077 3077 3077 3078 3078 3078 3078 3079 3080 3080 3081 3081 3082 3082 3082 3083 3083 3084 3084 3085 3086 3087 3088 3089 3090 3091 3092 3093 3094 3093 3093 3094 3095 3096 3097 3097 3098 3098 3098 3099
3066 3066 3067 3067 3066 3066 3065 3065 3066 3067 3067 3067 3067 3067 3067 3068 3069 3069 3069 3069 3070 3070 3068 3069 3071 3071 3071 3072 3073 3073 3074 3074 3074 3075 3076 3074 3074 3074 3073 3073 3073 3073 3073 3074 3074 3074 3075 3075 3076 3077 3077 3077 3077 3078 3078 3079 3080 3080 3080 3081 3081 3082 3082 3083 3083 3084 3084 3085 3085 3087 3088 3089 3090 3091 3091 3090 3090 3092 3093 3093 3094 3095 3095 3095 3096 3097
3064 3064 3065 3065 3065 3064 3065 3065 3065 3066 3065 3065 3065 3065 3065 3066 3067 3067 3067 3067 3069 3068 3066 3067 3070 3070 3069 3071 3072 3072 3073 3074 3074 3074 3074 3073 3073 3073 3072 3072 3073 3073 3072 3072 3072 3071 3072 3073 3074 3075 3075 3075 3076 3076 3077 3077 3078 3078 3079 3080 3080 3081 3081 3082 3082 3083 3083 3083 3084 3085 3086 3087 3087 3088 3088 3088 3089 3090 3090 3091 3092 3092 3092 3092 3093 3095
3063 3063 3064 3064 3063 3062 3062 3063 3063 3063 3063 3063 3063 3062 3063 3063 3064 3064 3065 3065 3067 3066 3065 3066 3067 3067 3068 3070 3070 3070 3071 3071 3072 3072 3071 3071 3072 3072 3072 3071 3072 3073 3073 3072 3070 3069 3068 3069 3071 3072 3073 3073 3074 3074 3075 3075 3076 3076 3077 3078 3079 3079 3080 3080 3081 3081 3081 3082 3082 3083 3083 3084 3084 3085 3085 3086 3086 3087 3088 3089 3089 3089 3090 3090 3091 3092
3062 3062 3063 3063 3062 3060 3061 3061 3061 3062 3061 3060 3060 3060 3060 3061 3061 3062 3063 3063 3064 3064 3064 3065 3064 3063 3066 3067 3067 3068 3068 3069 3069 3070 3070 3070 3070 3071 3070 3070 3070 3071 3072 3072 3070 3069 3067 3066 3066 3067 3069 3070 3071 3071 3072 3073 3073 3073 3074 3076 3076 3076 3077 3078 3078 3079 3079 3080 3080 3081 3081 3081 3081 3082 3083 3083 3084 3085 3086 3086 3086 3086 3086 3086 3087 3088
3060 3061 3062 3062 3061 3059 3060 3060 3060 3060 3060 3058 3057 3058 3059 3059 3060 3060 3061 3062 3062 3062 3062 3062 3062 3061 3063 3064 3064 3065 3065 3065 3066 3067 3067 3066 3067 3068 3068 3068 3068 3069 3070 3070 3069 3067 3065 3064 3063 3063 3064 3067 3068 3068 3069 3070 3070 3069 3071 3073 3073 3073 3074 3074 3075 3076 3076 3077 3077 3077 3078 3078 3079 3079 3080 3081 3082 3083 3083 3083 3083 3083 3083 3083 3083 3083
3060 3060 3061 3061 3060 3058 3059 3059 3059 3059 3058 3055 3055 3057 3057 3057 3057 3057 3058 3059 3060 3060 3060 3060 3060 3059 3059 3060 3061 3062 3061 3061 3061 3062 3061 3061 3062 3063 3064 3066 3066 3066 3066 3067 3067 3066 3064 3062 3060 3059 3061 3064 3064 3064 3066 3068 3067 3065 3067 3070 3070 3070 3071 3071 3072 3072 3073 3073 3074 3074 3075 3075 3076 3077 3077 3078 3079 3079 3080 3080 3080 3079 3079 3079 3080 3080
3059 3059 3059 3060 3059 3057 3058 3059 3059 3058 3055 3053 3054 3055 3055 3055 3055 3055 3055 3056 3056 3057 3057 3056 3056 3056 3056 3058 3059 3059 3058 3058 3058 3058 3058 3059 3059 3060 3061 3063 3064 3063 3062 3063 3064 3063 3061 3059 3057 3056 3059 3061 3061 3062 3064 3065 3064 3063 3065 3066 3066 3067 3067 3068 3068 3069 3069 3070 3070 3070 3071 3072 3072 3073 3074 3074 3075 3075 3075 3075 3075 3075 3075 3075 3076 3076
3056 3057 3057 3058 3057 3056 3057 3058 3057 3054 3051 3052 3054 3054 3053 3053 3053 3053 3054 3055 3055 3055 3054 3054 3054 3054 3055 3056 3056 3057 3057 3056 3056 3056 3057 3058 3058 3058 3057 3057 3058 3059 3059 3059 3060 3059 3056 3055 3054 3053 3056 3058 3058 3059 3061 3061 3060 3061 3062 3062 3062 3064 3064 3065 3065 3065 3066 3067 3067 3067 3068 3068 3069 3070 3070 3071 3071 3071 3072 3072 3072 3072 3072 3072 3072 3072
3054 3055 3056 3056 3056 3055 3055 3056 3054 3050 3049 3052 3053 3051 3050 3051 3051 3051 3052 3053 3054 3053 3052 3052 3052 3052 3053 3054 3055 3055 3055 3053 3053 3054 3056 3055 3054 3053 3052 3052 3052 3053 3053 3054 3055 3054 3052 3051 3052 3052 3052 3054 3055 3057 3058 3057 3057 3058 3059 3059 3059 3060 3061 3062 3062 3063 3063 3064 3064 3065 3065 3065 3065 3066 3067 3067 3068 3068 3068 3069 3069 3069 3069 3069 3068 3069
3051 3052 3054 3054 3054 3054 3053 3052 3051 3049 3049 3051 3050 3048 3048 3049 3049 3049 3050 3051 3052 3052 3051 3051 3051 3051 3052 3052 3053 3052 3051 3050 3052 3053 3053 3052 3051 3050 3049 3049 3050 3051 3051 3051 3051 3050 3049 3049 3050 3050 3049 3050 3052 3053 3053 3054 3054 3054 3055 3056 3056 3057 3057 3058 3059 3060 3060 3060 3061 3061 3061 3062 3062 3063 3063 3064 3064 3064 3065 3065 3065 3065 3065 3065 3065 3065
3049 3050 3052 3052 3052 3052 3052 3050 3049 3049 3048 3048 3047 3046 3046 3047 3047 3048 3048 3050 3050 3049 3048 3049 3049 3049 3049 3049 3049 3048 3048 3049 3051 3051 3050 3050 3049 3048 3047 3046 3047 3048 3049 3049 3047 3047 3047 3048 3047 3047 3046 3047 3048 3049 3050 3050 3051 3051 3052 3053 3053 3053 3054 3055 3055 3056 3056 3056 3057 3057 3057 3058 3058 3059 3060 3060 3061 3061 3061 3062 3062 3062 3062 3062 3062 3061
3047 3048 3050 3049 3049 3050 3050 3049 3048 3048 3047 3046 3047 3046 3045 3045 3047 3048 3048 3049 3048 3047 3046 3047 3048 3047 3047 3046 3047 3047 3047 3048 3049 3048 3047 3047 3046 3045 3044 3044 3045 3046 3046 3046 3045 3045 3046 3046 3045 3043 3042 3043 3044 3045 3046 3046 3047 3047 3048 3049 3049 3050 3051 3051 3052 3052 3053 3053 3053 3053 3053 3054 3054 3055 3055 3056 3057 3057 3058 3058 3058 3058 3058 3058 3058 3058
3046 3047 3047 3047 3047 3048 3049 3048 3047 3047 3046 3045 3045 3045 3044 3044 3046 3047 3047 3046 3045 3045 3045 3046 3045 3045 3045 3044 3045 3046 3046 3047 3046 3045 3044 3045 3044 3043 3043 3042 3042 3042 3043 3043 3043 3043 3043 3043 3042 3040 3039 3040 3041 3042 3041 3042 3043 3044 3044 3045 3045 3046 3046 3047 3048 3048 3049 3049 3049 3049 3050 3050 3050 3050 3050 3051 3052 3053 3054 3054 3054 3055 3055 3054 3054 3054
3044 3045 3045 3045 3045 3046 3047 3046 3046 3045 3044 3043 3043 3043 3043 3043 3045 3046 3045 3044 3044 3043 3043 3043 3043 3043 3043 3042 3043 3044 3044 3043 3042 3041 3041 3042 3042 3041 3041 3040 3039 3039 3039 3039 3039 3039 3039 3038 3038 3037 3037 3038 3038 3038 3038 3038 3038 3039 3040 3040 3041 3041 3042 3043 3043 3044 3044 3045 3045 3045 3046 3046 3046 3046 3046 3046 3047 3048 3049 3049 3050 3050 3050 3050 3050 3049
3043 3043 3043 3043 3044 3045 3045 3045 3044 3044 3043 3042 3042 3042 3042 3043 3043 3043 3042 3042 3042 3041 3041 3041 3041 3041 3041 3040 3041 3041 3040 3039 3038 3038 3037 3037 3037 3037 3036 3036 3036 3036 3036 3035 3035 3035 3035 3035 3034 3034 3035 3036 3036 3035 3035 3034 3034 3034 3035 3035 3036 3036 3037 3038 3038 3039 3039 3039 3040 3040 3041 3041 3042 3042 3042 3042 3043 3043 3043 3044 3044 3044 3044 3045 3046 3044
3043 3043 3043 3043 3043 3043 3043 3043 3043 3042 3041 3041 3041 3041 3042 3042 3041 3040 3040 3040 3039 3039 3039 3038 3039 3039 3038 3038 3037 3037 3036 3035 3035 3034 3033 3033 3033 3033 3032 3032 3032 3032 3032 3032 3032 3032 3032 3032 3031 3031 3032 3032 3032 3032 3032 3031 3030 3030 3030 3030 3030 3031 3031 3032 3033 3033 3034 3034 3035 3035 3036 3036 3037 3037 3037 3037 3038 3038 3038 3038 3038 3039 3039 3040 3040 3038
3042 3042 3042 3042 3042 3042 3042 3042 3041 3040 3040 3041 3041 3041 3041 3040 3039 3038 3038 3038 3037 3037 3036 3036 3036 3037 3036 3034 3033 3033 3032 3032 3031 3031 3030 3029 3029 3029 3028 3028 3028 3028 3028 3029 3029 3029 3028 3028 3027 3027 3028 3028 3028 3028 3027 3027 3027 3026 3025 3025 3025 3026 3026 3026 3027 3028 3028 3029 3030 3031 3031 3032 3032 3032 3032 3033 3033 3032 3032 3032 3032 3032 3033 3034 3034 3032
3041 3040 3041 3040 3040 3041 3041 3041 3040 3040 3040 3041 3040 3040 3039 3038 3038 3038 3038 3036 3036 3035 3034 3033 3033 3032 3031 3030 3029 3028 3028 3027 3027 3027 3026 3025 3025 3025 3024 3024 3023 3023 3024 3024 3024 3024 3024 3023 3022 3022 3022 3023 3023 3023 3022 3022 3022 3022 3021 3021 3021 3021 3021 3021 3022 3023 3023 3024 3025 3026 3026 3027 3027 3027 3027 3027 3027 3027 3027 3026 3025 3026 3028 3028 3028 3027
3039 3038 3039 3039 3039 3040 3039 3039 3039 3039 3039 3039 3038 3037 3037 3037 3037 3037 3035 3033 3032 3031 3030 3029 3028 3028 3027 3026 3025 3024 3023 3022 3022 3022 3022 3021 3019 3019 3019 3019 3019 3019 3019 3019 3019 3019 3019 3018 3017 3017 3017 3017 3017 3017 3016 3017 3017 3016 3017 3016 3016 3016 3016 3016 3017 3018 3018 3019 3020 3021 3021 3022 3022 3022 3022 3022 3022 3023 3021 3020 3020 3021 3022 3022 3022 3022
3037 3037 3037 3038 3039 3039 3038 3037 3038 3037 3037 3036 3036 3036 3036 3036 3034 3032 3030 3028 3027 3027 3027 3026 3025 3024 3023 3022 3021 3019 3018 3017 3017 3016 3016 3016 3014 3012 3012 3013 3013 3014 3014 3014 3014 3014 3014 3012 3012 3012 3011 3011 3011 3011 3010 3010 3010 3010 3011 3011 3011 3011 3011 3011 3011 3012 3013 3014 3014 3015 3016 3017 3017 3017 3017 3017 3018 3017 3016 3015 3016 3017 3017 3017 3017 3018
3036 3035 3036 3037 3038 3037 3036 3036 3036 3035 3035 3034 3034 3034 3033 3031 3028 3027 3027 3025 3025 3025 3024 3023 3022 3020 3019 3018 3016 3014 3013 3013 3012 3011 3011 3010 3008 3007 3007 3007 3007 3007 3007 3007 3008 3007 3007 3006 3005 3004 3004 3003 3004 3004 3003 3004 3004 3004 3005 3006 3006 3006 3005 3005 3006 3007 3007 3008 3008 3009 3010 3011 3011 3011 3012 3012 3012 3012 3011 3012 3013 3013 3013 3013 3014 3014
3036 3035 3036 3036 3036 3035 3035 3035 3034 3032 3031 3031 3031 3030 3029 3026 3025 3025 3024 3023 3022 3021 3020 3019 3018 3017 3015 3014 3012 3010 3009 3008 3008 3007 3005 3004 3003 3002 3001 3001 3001 3001 3001 3001 3001 3000 3000 2998 2998 2998 2997 2997 2998 2998 2997 2997 2998 2998 2999 2999 3000 3001 3000 2999 3000 3001 3002 3002 3003 3004 3005 3006 3006 3007 3007 3006 3006 3007 3008 3008 3009 3009 3010 3010 3010 3010
3035 3035 3034 3034 3034 3034 3034 3033 3031 3028 3028 3028 3028 3026 3025 3024 3023 3022 3021 3020 3019 3018 3016 3015 3013 3013 3011 3010 3008 3006 3005 3004 3003 3002 3000 2999 2998 2997 2995 2995 2994 2994 2994 2994 2994 2994 2993 2992 2992 2992 2992 2991 2992 2992 2991 2992 2992 2992 2992 2993 2994 2995 2995 2994 2995 2996 2996 2997 2998 2999 3000 3001 3002 3002 3001 3001 3002 3003 3004 3004 3004 3005 3006 3006 3006 3006
3033 3033 3032 3032 3032 3031 3030 3029 3028 3027 3026 3025 3024 3023 3022 3021 3020 3018 3017 3016 3015 3013 3012 3010 3009 3007 3006 3005 3004 3002 3000 2999 2998 2997 2995 2994 2993 2992 2990 2989 2988 2987 2987 2987 2986 2986 2986 2987 2987 2986 2986 2985 2985 2985 2985 2985 2985 2986 2986 2987 2987 2988 2989 2989 2990 2990 2991 2993 2994 2995 2996 2997 2997 2997 2996 2997 2999 2999 3000 3000 3001 3001 3002 3003 3003 3003